Regional Weather Roundup
Issued by NWS Charleston, SC

Current Version | Previous Version | Graphics & Text | Print | Product List | Glossary On
Versions: 1 2 3 4 5 6 7 8 9 10 11 12 13 14 15 16 17 18 19 20 21 22 23 24 25 26 27 28 29 30 31 32 33 34 35 36 37 38 39 40 41 42 43 44 45 46 47 48 49 50
000
ASUS42 KCHS 031427
RWRCHS

REGIONAL WEATHER ROUNDUP
NATIONAL WEATHER SERVICE CHARLESTON SC
1000 AM EDT SUN MAY 03 2015

NOTE: "FAIR" INDICATES FEW OR NO CLOUDS BELOW 12,000 FEET WITH NO
SIGNIFICANT WEATHER AND/OR OBSTRUCTIONS TO VISIBILITY.

NOT ALL STATIONS ARE QUALITY CONTROLLED BY THE NATIONAL
WEATHER SERVICE. USE DATA WITH CAUTION...ESPECIALLY
DEWPOINT OBSERVATIONS.

SCZ027-030-031-034>040-042>050-031500-
...SOUTHEAST SOUTH CAROLINA...

CITY           SKY/WX    TMP DP  RH WIND       PRES   REMARKS
N CHARLESTON   SUNNY     70  52  52 W7        30.19R
WATERFRONT PRK   N/A     70 N/A N/A W6          N/A
MOUNT PLEASANT FAIR      72  55  56 MISG      30.20R
PINOPOLIS      NOT AVBL
MONCKS CORNER  FAIR      72  55  56 N3        30.20R
SUMMERVILLE    FAIR      72  54  53 SW5       30.20S
BEAUFORT MCAS  SUNNY     72  53  51 W8        30.20R
BEAUFORT ARPT  FAIR      72  55  56 W5        30.19S
HILTON HEAD IS SUNNY     70  54  56 CALM      30.20S
WALTERBORO     SUNNY     68  52  56 NW5       30.20R
ALLENDALE      FAIR      70  52  52 VRB7      30.19R

...SOUTHERN MIDLANDS AND PEE DEE...

CITY           SKY/WX    TMP DP  RH WIND       PRES   REMARKS
GEORGETOWN     NOT AVBL
KINGSTREE      NOT AVBL
ORANGEBURG     SUNNY     70  52  52 W5        30.19R
BARNWELL       FAIR      72  55  56 W3        30.21R
AIKEN          FAIR      70  50  49 SW5       30.23S
MANNING        FAIR      70 -22   2 CALM      30.20R
COLUMBIA       SUNNY     68  49  50 CALM      30.19R
SUMTER         SUNNY     70  52  52 VRB1      30.18R
FLORENCE       SUNNY     72  53  51 S5        30.19R
MYRTLE BEACH   SUNNY     72  61  68 S7        30.20R
N MYRTLE BEACH SUNNY     70  59  68 CALM      30.19R

$$

GAZ063-065-086>088-099>101-113>116-118-119-134>141-150-031500-
...SOUTHEAST GEORGIA...

CITY           SKY/WX    TMP DP  RH WIND       PRES   REMARKS
SAVANNAH ARPT  SUNNY     71  52  50 W6        30.20R
HUNTER AAF     SUNNY     71  56  57 W6        30.17R
FORT STEWART   SUNNY     72  51  48 SW7       30.18R
STATESBORO       N/A     72  53  52 W9        30.20S
SYLVANIA       SUNNY     72  55  55 W6        30.21R
CLAXTON        FAIR      72  54  53 W8        30.20S

...CSRA...CENTRAL AND FAR SOUTHEAST GEORGIA...

CITY           SKY/WX    TMP DP  RH WIND       PRES   REMARKS
THOMSON        SUNNY     75  57  53 CALM      30.23S
AUGUSTA-BUSH   SUNNY     67  55  65 CALM      30.19R
AUGUSTA-DANIEL SUNNY     70  52  52 CALM      30.20R
SWAINSBORO     NOT AVBL
VIDALIA        SUNNY     72  59  64 SW9       30.21R
EASTMAN        FAIR      72  59  64 CALM      30.22R
HAZLEHURST     FAIR      73  57  56 SW5       30.20R
ALMA           SUNNY     70  51  51 VRB5      30.20R
WAYCROSS       SUNNY     77  53  42 SW7       30.20S
JESUP          FAIR      75  57  53 SW5       30.21R
BAXLEY         FAIR      73  50  43 SW6       30.20R
BRUNSWICK      SUNNY     73  52  46 SW7       30.21R
SAINT SIMONS   SUNNY     71  56  58 W6        30.19R

$$

SCZ027-028-034-036>038-045-046-048>050-GAZ119-141-031500-
...LAKE AND SUPPLEMENTAL COASTAL OBSERVATIONS...

STATION/POSITION TIME  TEMP    WIND        PRES    WAVE   SWELL
                       AIR SEA DIR/SP/G            HT/PER HT/PER/DIR
                 (UTC) (F)     (DEG/KT/KT) (MB)    (FT/S) (FT/S/D)
UPR LAKE MARION  NOT AVBL
WINYAH BAY       1345   67      60/  3     1021.0S
LAKE MURRAY      1300   64      CALM  /  2 1021.3R
ACE BASIN NERRS  NOT AVBL
FORT PULASKI     1300   65 69  280/  5/  6 1022.5R
SAPELO ISLAND    1400   71     230/  3     1022.0S

$$

ANZ835-935-AMZ111-154-330-350-352-354-370-450-454-472-031500-
...C-MAN AND BUOY OBSERVATIONS...

STATION/POSITION TIME  TEMP    WIND        PRES    WAVE   SWELL
                       AIR SEA DIR/SP/G            HT/PER HT/PER/DIR
                 (UTC) (F)     (DEG/KT/KT) (MB)    (FT/S) (FT/S/D)
BUOY 41004       1350   69 73  300/  4/  6 1022.0R   3/11   3/11
BUOY 41008       1350   69 69  330/  6/  8 1022.4R   3/12   3/ 60/12
FOLLY BEACH CMAN 1400   69     290/  5/  7 1022.4R
CAPERS NEARSHORE 1308   66     280/  8/ 12 1022.0R
FRIPP NEARSHORE  1300   69     320/  2/  4 1021.5R


STATION/POSITION TIME  TEMP    WIND        PRES    WAVE   SWELL
                       AIR SEA DIR/SP/G            HT/PER HT/PER/DIR
                 (UTC) (F)     (DEG/KT/KT) (MB)    (FT/S) (FT/S/D)
5E ST. MARYS GA  1321      71                N/A     3/15   2/ 80/15
FRYING PAN BUOY  1350   69 71   20/  4/  6 1023.1R   4/ 8   3/ 90/ 8
BUOY 41025       1350   59 58  310/  4/  6 1021.9R   5/11   5/ 80/11
CAPE LOOKOUT NC  1400   65     290/  8/ 10 1022.0R
BUOY 41002       1350   67 69   20/ 16/ 19 1021.5R   9/10   7/ 20/10
BUOY 41010       1320   73 78   60/ 12/ 16 1021.1R
ST AUGUSTINE FL  1400   72 70   70/  5/  5 1022.8R


$$


USA.gov is the U.S. government's official web portal to all federal, state and local government web resources and services.